Home > Weather > Rosenheim > Past weeks

Flag for Germany Past Weather in Rosenheim, Bavaria, Germany — Yesterday and Last 2 Weeks

Now
61 °F

Cool.


Feels Like: 61 °F
Forecast: 56 / 78 °F
Wind: 1 mph from Northeast

Location: Kufstein

Current Time: May 28, 2016 at 10:13:29 PM

Latest Report: May 28, 2016 at 9:00 PM


Visibility: N/A

Pressure: 29.84 "Hg

Humidity: 92%

Dew Point: 59 °F

Location of RosenheimLocation

Past Weather in Rosenheim — Graph

°F

Rosenheim Temperature Yesterday

Maximum temperature yesterday: 80 °F (at 3:00 PM)
Minimum temperature yesterday: 54 °F (at 6:00 AM)
Average temperature yesterday: 65 °F

High & Low Weather Summary for the Past Weeks

 TemperatureHumidityPressure
High87 °F (May 22, 4:00 PM)97% (May 14, 1:00 AM)30.23 "Hg (May 14, 1:00 AM)
Low41 °F (May 16, 6:00 AM)21% (May 22, 7:00 PM)29.57 "Hg (May 13, 8:00 PM)
Average55 °F75%29.97 "Hg
* Reported May 13 8:00 PM — May 28 8:00 PM, Rosenheim, Weather by CustomWeather, © 2016

Note: Actual official high and low records may vary slightly from our data, if they occured in-between our weather recording intervals... More about our weather records

Advertising

Rosenheim Weather History for the Previous 24 Hours

Scroll right to see more
 ConditionsComfort  
Time TempWeatherWind HumidityBarometerVisibility
8:00 PM
Sat, May 28
65 °FMild.1 mph79%29.83 "HgN/A
7:00 PM65 °FMild.1 mph86%29.84 "HgN/A
6:00 PM64 °FMild.1 mph85%29.86 "HgN/A
5:00 PM61 °FCool.2 mph88%29.88 "HgN/A
4:00 PM70 °FMild.2 mph63%29.82 "HgN/A
3:00 PM75 °FMild.5 mph55%29.79 "HgN/A
2:00 PM75 °FMild.5 mph55%29.81 "HgN/A
1:00 PM75 °FMild.1 mph57%29.83 "HgN/A
12:00 PM71 °FMild.2 mph61%29.86 "HgN/A
8:00 AM60 °FFog.2 mph88%29.99 "HgN/A
7:00 AM60 °FCool.2 mph88%29.96 "HgN/A
6:00 AM58 °FCool.2 mph90%29.97 "HgN/A
5:00 AM59 °FCool.2 mph89%29.96 "HgN/A
4:00 AM60 °FCool.5 mph90%29.97 "HgN/A
3:00 AM60 °FCool.2 mph93%29.98 "HgN/A
2:00 AM60 °FCool.No wind93%29.99 "HgN/A
1:00 AM62 °FCool.2 mph89%29.99 "HgN/A
12:00 AM62 °FCool.2 mph92%30.01 "HgN/A
11:00 PM
Fri, May 27
62 °FCool.2 mph93%29.99 "HgN/A
10:00 PM65 °FFog.1 mph89%29.98 "HgN/A
Weather by CustomWeather, © 2016

See weather overviewHow to use our weather pages